Home > Weather > Linares > Past weeks

Flag for Spain Weather for the Past 2 Weeks in Linares, Spain

Now
55 °F

Clear.


Feels Like: 54 °F
Forecast: 54 / 74 °F
Wind: 6 mph from West

Location: Malaga / Aeropuerto

Current Time: May 3, 2016 at 5:19:02 AM

Latest Report: May 3, 2016 at 4:30 AM


Visibility: 10 mi

Pressure: 30.15 "Hg

Humidity: 72%

Dew Point: 46 °F

Location of LinaresLocation

Historic Weather in Linares — Graph

°F

Linares Temperature Yesterday

Maximum temperature yesterday: 70 °F (at 5:00 PM)
Minimum temperature yesterday: 61 °F (at 6:30 AM)
Average temperature yesterday: 65 °F

High & Low Weather Summary for the Past Weeks

 TemperatureHumidityPressure
High79 °F (Apr 27, 8:00 PM)100% (Apr 20, 1:00 AM)30.21 "Hg (Apr 20, 1:00 AM)
Low46 °F (Apr 21, 6:30 AM)28% (Apr 27, 8:00 PM)29.80 "Hg (Apr 27, 4:30 PM)
Average64 °F72%30.01 "Hg
* Reported Apr 18 3:30 AM — May 3 3:30 AM, Linares, Weather by CustomWeather, © 2016

Note: Actual official high and low records may vary slightly from our data, if they occured in-between our weather recording intervals... More about our weather records

Advertising

Linares Weather History for the Previous 24 Hours

Scroll right to see more
 ConditionsComfort  
Time TempWeatherWind HumidityBarometerVisibility
3:30 AM
Tue, May 3
54 °FClear.5 mph77%30.15 "Hg10 mi
3:00 AM52 °FClear.3 mph82%30.15 "Hg10 mi
2:30 AM54 °FClear.3 mph77%30.15 "Hg10 mi
2:00 AM59 °FClear.1 mph72%30.15 "Hg10 mi
1:30 AM61 °FClear.1 mph72%30.15 "Hg10 mi
1:00 AM61 °FClear.3 mph68%30.15 "Hg10 mi
12:00 AM61 °FClear.No wind68%30.18 "Hg10 mi
11:30 PM
Mon, May 2
61 °FClear.1 mph63%30.15 "Hg10 mi
11:00 PM63 °FPassing clouds.3 mph59%30.15 "HgN/A
10:30 PM63 °FPassing clouds.5 mph59%30.15 "HgN/A
10:00 PM63 °FPassing clouds.6 mph59%30.12 "HgN/A
9:30 PM63 °FPassing clouds.7 mph59%30.12 "HgN/A
9:00 PM64 °FPassing clouds.7 mph56%30.12 "HgN/A
8:30 PM64 °FPassing clouds.9 mph56%30.12 "HgN/A
8:00 PM66 °FPassing clouds.10 mph56%30.09 "HgN/A
7:30 PM66 °FPassing clouds.9 mph56%30.09 "HgN/A
7:00 PM66 °FPassing clouds.10 mph56%30.09 "HgN/A
6:30 PM66 °FPassing clouds.10 mph52%30.09 "HgN/A
6:00 PM68 °FPassing clouds.12 mph49%30.09 "HgN/A
5:30 PM68 °FPassing clouds.13 mph49%30.09 "HgN/A
5:00 PM70 °FPassing clouds.13 mph43%30.12 "HgN/A
4:30 PM68 °FPassing clouds.14 mph46%30.12 "HgN/A
4:00 PM68 °FPassing clouds.15 mph43%30.12 "HgN/A
3:30 PM68 °FPassing clouds.14 mph46%30.12 "HgN/A
3:00 PM68 °FPassing clouds.16 mph43%30.15 "HgN/A
2:30 PM68 °FPassing clouds.16 mph49%30.15 "HgN/A
2:00 PM68 °FPassing clouds.16 mph53%30.15 "HgN/A
1:30 PM66 °FPassing clouds.15 mph56%30.15 "HgN/A
1:00 PM66 °FPassing clouds.13 mph60%30.15 "HgN/A
12:30 PM66 °FPassing clouds.14 mph60%30.15 "HgN/A
12:00 PM66 °FScattered clouds.13 mph60%30.15 "HgN/A
11:30 AM66 °FScattered clouds.13 mph60%30.15 "HgN/A
11:00 AM64 °FScattered clouds.12 mph64%30.15 "HgN/A
10:30 AM64 °FScattered clouds.12 mph64%30.15 "HgN/A
9:30 AM64 °FScattered clouds.10 mph64%30.15 "HgN/A
9:00 AM63 °FScattered clouds.9 mph68%30.15 "HgN/A
8:30 AM61 °FPartly sunny.12 mph72%30.15 "HgN/A
8:00 AM63 °FPassing clouds.10 mph68%30.15 "HgN/A
7:00 AM61 °FPartly cloudy.13 mph77%30.15 "HgN/A
6:30 AM61 °FPartly cloudy.13 mph77%30.15 "HgN/A
6:00 AM63 °FPartly cloudy.14 mph73%30.15 "HgN/A
5:30 AM63 °FPassing clouds.14 mph73%30.15 "HgN/A
5:00 AM63 °FPassing clouds.14 mph73%30.18 "HgN/A
Weather by CustomWeather, © 2016

See weather overviewHow to use our weather pages